Regional Weather Roundup
Issued by NWS New Orleans/Baton Rouge, LA

Home | Current Version | Previous Version | Graphics & Text | Print | Product List | Glossary On
Versions: 1 2 3 4 5 6 7 8 9 10 11 12 13 14 15 16 17 18 19 20 21 22 23 24 25 26 27 28 29 30 31 32 33 34 35 36 37 38 39 40 41 42 43 44 45 46 47 48 49 50
312
ASUS44 KLIX 210310
RWRLIX
NEW ORLEANS REGIONAL WEATHER ROUNDUP
NATIONAL WEATHER SERVICE NEW ORLEANS LA
900 PM CST THU NOV 20 2014

NOTE: "FAIR" INDICATES FEW OR NO CLOUDS BELOW 12,000 FEET WITH NO
      SIGNIFICANT WEATHER AND/OR OBSTRUCTIONS TO VISIBILITY.
      SKY/WX - SKY CONDITION AND SIGNIFICANT WEATHER.
      TMP - AIR TEMPERATURE.     DP    - DEWPOINT TEMPERATURE.
      RH  - RELATIVE HUMIDITY.   PRES  - PRESSURE.
      HI  - HEAT INDEX.          WCI   - WIND CHILL INDEX.

*  THESE STATIONS ARE NOT NWS OR FAA STATIONS AND ARE NOT UNDER
   NWS QUALITY CONTROL.

LAZ038-040-048-061>063-065>067-069-210400-
SOUTHEAST LOUISIANA

CITY           SKY/WX    TMP DP  RH WIND       PRES   REMARKS
N.O. AUDUBON     N/A     56  47  72 MISG        N/A
N.O. INTL ARPT CLEAR     55  45  68 SE7       30.24R
N.O. LAKEFRONT CLEAR     54  44  69 S8        30.25R
N.O. DOWNTOWN*   N/A     57  43  58 S6        30.25R
SLIDELL        CLEAR     47  43  86 CALM      30.24S
BATON ROUGE    CLEAR     53  46  77 SE3       30.22R
BOOTHVILLE     CLEAR     56  49  77 E5        30.26S
BELLE CHASSE   PTCLDY    54  44  69 S6        30.24R
BOGALUSA*        N/A     47  42  81 CALM      30.25S
NEW ROADS*       N/A     55  47  74 SE5       30.22R
GONZALES*        N/A     54  47  77 CALM      30.23R
HAMMOND*       CLEAR     50  45  81 CALM      30.25S
HOUMA*         CLEAR     50  46  88 SE3       30.23S
PORT FOURCHON* CLEAR     63  48  59 SE12G18   30.26S

$$

MSZ070-080>082-210400-
SOUTHERN MISSISSIPPI

CITY           SKY/WX    TMP DP  RH WIND       PRES   REMARKS
MCCOMB         CLEAR     51  44  77 S5        30.22S
GULFPORT       CLEAR     48  44  86 CALM      30.25S
BILOXI         CLEAR     50  49  97 CALM      30.24F
PASCAGOULA     FOG       40  40 100 CALM      30.26S VSB 3/4
STENNIS ARPT*  CLEAR     45  41  87 CALM      30.23

$$

COASTAL OBSERVATIONS
LAKE AND NEARSHORE STATIONS

STATION/POSITION TIME  TEMP    WIND        PRES    WAVE
                       AIR SEA DIR/SP/G            HT/PER
                 (UTC) (F)     (DEG/KT/KT) (MB)    (FT/S)
PASCAGOULA       0300   54     160/  4/  5 1023.9
WAVELAND YACHT   0300   55     170/  1/  2 1023.4
GRAND ISLE       0300   62 58  120/  7/ 10 1024.2
SOUTHWEST PASS   0300   60 74              1024.5
NEW CANAL        0300   56 53  160/  3/  4 1024.3
SHELL BEACH      0300   54 50  150/  8/  9 1023.9

OFFSHORE STATIONS

STATION/POSITION TIME  TEMP    WIND        PRES    WAVE
                       AIR SEA DIR/SP/G            HT/PER
                 (UTC) (F)     (DEG/KT/KT) (MB)    (FT/S)
64 S DAUPHIN ISL 0241   63 72  110/  6/  8 1025.6    1/ 8

$$




USA.gov is the U.S. government's official web portal to all federal, state and local government web resources and services.